GW4623 Weather Reports


time (UTC)temp
F
wind
direction
speed
knots
gust
knots
rain 1hr
in
rain 24hr
in
rain mn
in
humidity
%
barometer
mb
20260504081506 57 168 2.6 5.2 0.00 0.00 0.00 41 997.3
20260504081002 57 187 1.7 3.5 0.00 0.00 0.00 43 997.7
20260504080458 56 151 3.5 6.1 0.00 0.00 0.00 43 997.6
20260504050258 57 119 1.7 2.6 0.00 0.00 0.00 44 1001.2
20260504045751 56 167 1.7 1.7 0.00 0.00 0.00 45 1001.2
20260504045250 55 118 1.7 2.6 0.00 0.00 0.00 46 1001.3
20260504044748 55 122 0.9 2.6 0.00 0.00 0.00 47 1001.6
20260504044245 55 144 1.7 1.7 0.00 0.00 0.00 48 1001.4
20260504043743 53 105 1.7 1.7 0.00 0.00 0.00 49 1001.6
20260504043239 53 100 0.9 1.7 0.00 0.00 0.00 51 1001.7
20260504042738 52 129 1.7 1.7 0.00 0.00 0.00 51 1001.9
20260504042233 52 117 1.7 1.7 0.00 0.00 0.00 52 1001.8
20260504041729 51 100 0.9 1.7 0.00 0.00 0.00 53 1002.0
20260504041226 51 99 0.9 1.7 0.00 0.00 0.00 53 1002.0
20260504040722 51 87 1.7 1.7 0.00 0.00 0.00 54 1002.3
20260504040219 51 80 0.0 1.7 0.00 0.00 0.00 54 1002.3
20260504035715 51 73 0.0 1.7 0.00 0.00 0.00 53 1002.2
20260504035214 52 88 0.9 1.7 0.00 0.00 0.00 53 1002.6
20260504034711 52 72 0.9 1.7 0.00 0.00 0.00 53 1002.7
20260504034208 52 89 0.0 1.7 0.00 0.00 0.00 51 1002.7
20260504033705 52 110 0.9 1.7 0.00 0.00 0.00 50 1002.8
20260504033202 53 112 0.0 1.7 0.00 0.00 0.00 50 1002.9
20260504032659 53 91 1.7 1.7 0.00 0.00 0.00 50 1003.0
20260504032156 53 106 0.0 1.7 0.00 0.00 0.00 48 1003.1
20260504031653 53 141 0.0 0.9 0.00 0.00 0.00 48 1003.4
20260504031149 54 107 1.7 1.7 0.00 0.00 0.00 48 1003.4
20260504030646 54 113 0.9 1.7 0.00 0.00 0.00 47 1003.4
20260504030143 54 111 0.0 1.7 0.00 0.00 0.00 47 1003.7
20260504025639 55 95 0.0 1.7 0.00 0.00 0.00 46 1003.5
20260504025136 55 91 0.9 1.7 0.00 0.00 0.00 45 1003.6
20260504024633 55 89 1.7 1.7 0.00 0.00 0.00 44 1003.6
20260504024130 55 110 1.7 1.7 0.00 0.00 0.00 43 1003.5
20260504023626 56 109 0.9 1.7 0.00 0.00 0.00 42 1003.7
20260504023123 56 75 0.9 1.7 0.00 0.00 0.00 42 1003.7
20260504022619 56 66 1.7 1.7 0.00 0.00 0.00 43 1003.8
20260504022115 56 61 1.7 1.7 0.00 0.00 0.00 42 1003.7
20260504021613 56 85 0.9 1.7 0.00 0.00 0.00 41 1003.7
20260504021109 57 69 0.9 1.7 0.00 0.00 0.00 40 1003.7
20260504020607 57 91 1.7 1.7 0.00 0.00 0.00 42 1003.7
20260504015559 58 78 0.0 1.7 0.00 0.00 0.00 38 1003.7
20260504015055 59 44 0.0 1.7 0.00 0.00 0.00 39 1003.8
20260504014552 60 89 0.0 1.7 0.00 0.00 0.00 38 1003.5
20260504014049 60 84 0.0 1.7 0.00 0.00 0.00 35 1003.7
20260504013546 60 50 0.0 1.7 0.00 0.00 0.00 34 1003.8
20260504013043 61 100 0.9 0.9 0.00 0.00 0.00 33 1003.9
20260504012541 62 89 0.0 1.7 0.00 0.00 0.00 34 1003.7
20260504012038 62 109 0.0 1.7 0.00 0.00 0.00 33 1003.7
20260504011535 62 50 0.0 0.9 0.00 0.00 0.00 32 1003.8
20260504011026 63 65 0.0 1.7 0.00 0.00 0.00 32 1003.8
20260504010521 63 89 0.0 1.7 0.00 0.00 0.00 31 1003.8
20260504010017 64 73 0.0 1.7 0.00 0.00 0.00 31 1003.8
20260504005514 65 111 0.0 1.7 0.00 0.00 0.00 32 1003.9
20260504005012 65 92 0.0 1.7 0.00 0.00 0.00 30 1004.0
20260504004509 66 95 0.9 2.6 0.00 0.00 0.00 30 1004.0
20260504004006 66 22 0.0 4.3 0.00 0.00 0.00 29 1004.1
20260504003502 66 3 0.0 2.6 0.00 0.00 0.00 30 1004.1
20260504002959 66 268 0.0 2.6 0.00 0.00 0.00 31 1004.0
20260504002456 67 296 0.0 1.7 0.00 0.00 0.00 28 1004.0
20260504001953 67 341 0.0 0.9 0.00 0.00 0.00 28 1004.2
20260504001451 67 326 0.0 1.7 0.00 0.00 0.00 29 1004.2
20260504000947 67 209 2.6 2.6 0.00 0.00 0.00 29 1004.2
20260504000444 67 14 0.0 1.7 0.00 0.00 0.00 29 1004.2
20260503235941 67 25 0.0 1.7 0.00 0.00 0.00 30 1004.1
20260503235439 67 93 0.0 1.7 0.00 0.00 0.00 29 1004.1
20260503234936 67 261 0.9 1.7 0.00 0.00 0.00 27 1004.3
20260503234434 68 79 3.5 3.5 0.00 0.00 0.00 27 1004.1
20260503233932 68 230 0.0 0.9 0.00 0.00 0.00 29 1004.1
20260503233428 69 337 0.9 1.7 0.00 0.00 0.00 27 1004.2
20260503232925 69 114 0.0 1.7 0.00 0.00 0.00 30 1004.0
20260503232422 69 224 0.0 1.7 0.00 0.00 0.00 27 1004.1
20260503231920 69 89 0.0 1.7 0.00 0.00 0.00 28 1004.4
20260503231417 69 30 0.9 1.7 0.00 0.00 0.00 28 1004.3
20260503230913 69 26 0.9 2.6 0.00 0.00 0.00 28 1004.4
20260503230409 69 67 0.9 2.6 0.00 0.00 0.00 27 1004.3
20260503225907 70 282 1.7 1.7 0.00 0.00 0.00 25 1004.6
20260503225403 70 4 1.7 2.6 0.00 0.00 0.00 24 1004.6
20260503224859 70 56 0.0 2.6 0.00 0.00 0.00 26 1004.4
20260503224357 70 359 1.7 2.6 0.00 0.00 0.00 25 1004.5
20260503223854 70 306 1.7 1.7 0.00 0.00 0.00 26 1004.4
20260503223352 71 291 0.0 1.7 0.00 0.00 0.00 26 1004.6
20260503222847 70 199 2.6 2.6 0.00 0.00 0.00 25 1004.7
20260503222346 70 341 1.7 3.5 0.00 0.00 0.00 25 1004.6
20260503221843 70 213 1.7 4.3 0.00 0.00 0.00 26 1004.7
20260503221342 71 278 1.7 2.6 0.00 0.00 0.00 23 1004.7
20260503220837 71 6 1.7 2.6 0.00 0.00 0.00 23 1004.8
20260503220335 72 204 2.6 4.3 0.00 0.00 0.00 23 1004.7
20260503215832 72 333 0.0 1.7 0.00 0.00 0.00 25 1004.7
20260503215330 72 330 1.7 4.3 0.00 0.00 0.00 24 1005.0
20260503214827 72 305 0.0 2.6 0.00 0.00 0.00 25 1005.0
20260503214324 72 305 3.5 3.5 0.00 0.00 0.00 22 1004.8
20260503213821 72 283 1.7 2.6 0.00 0.00 0.00 25 1004.9
20260503213319 72 266 0.0 1.7 0.00 0.00 0.00 23 1005.1
20260503212815 72 208 3.5 3.5 0.00 0.00 0.00 23 1005.1
20260503212313 72 278 1.7 4.3 0.00 0.00 0.00 23 1005.1
20260503211810 72 153 5.2 7.0 0.00 0.00 0.00 24 1005.2
20260503211307 72 22 1.7 2.6 0.00 0.00 0.00 23 1005.1
20260503210807 72 202 1.7 4.3 0.00 0.00 0.00 28 1005.3
20260503210305 73 172 1.7 2.6 0.00 0.00 0.00 28 1005.3
20260503205759 72 323 1.7 3.5 0.00 0.00 0.00 23 1005.4
20260503205256 71 305 1.7 4.3 0.00 0.00 0.00 23 1005.3
20260503204753 72 32 1.7 3.5 0.00 0.00 0.00 24 1005.5
20260503204251 71 289 0.0 7.0 0.00 0.00 0.00 25 1005.7
20260503203748 72 289 2.6 3.5 0.00 0.00 0.00 23 1005.5
20260503203245 70 359 1.7 5.2 0.00 0.00 0.00 23 1005.5
20260503202742 71 277 2.6 4.3 0.00 0.00 0.00 23 1005.5
20260503202240 70 2 1.7 3.5 0.00 0.00 0.00 22 1005.4
20260503201737 70 9 4.3 5.2 0.00 0.00 0.00 24 1005.6
20260503201235 71 308 1.7 3.5 0.00 0.00 0.00 24 1005.6
20260503200731 72 261 2.6 5.2 0.00 0.00 0.00 24 1005.7
20260503200227 71 309 0.9 3.5 0.00 0.00 0.00 25 1005.6
20260503195724 71 169 1.7 3.5 0.00 0.00 0.00 26 1005.9
20260503195221 71 247 0.0 5.2 0.00 0.00 0.00 26 1005.9
20260503194719 71 287 3.5 3.5 0.00 0.00 0.00 25 1006.1
20260503194214 70 18 4.3 6.1 0.00 0.00 0.00 26 1006.1
20260503193711 70 333 1.7 4.3 0.00 0.00 0.00 28 1005.9
20260503193207 71 241 0.0 2.6 0.00 0.00 0.00 34 1006.0
20260503192702 70 343 1.7 4.3 0.00 0.00 0.00 29 1006.0
20260503192158 70 306 1.7 3.5 0.00 0.00 0.00 28 1006.3
20260503191655 71 350 3.5 3.5 0.00 0.00 0.00 29 1006.1
20260503191152 70 289 1.7 3.5 0.00 0.00 0.00 32 1006.1
20260503190649 71 308 3.5 3.5 0.00 0.00 0.00 27 1006.1
20260503190146 71 342 1.7 4.3 0.00 0.00 0.00 28 1006.0
20260503185642 71 274 1.7 3.5 0.00 0.00 0.00 30 1006.1
20260503185138 70 326 1.7 4.3 0.00 0.00 0.00 25 1006.2
20260503184633 70 271 1.7 4.3 0.00 0.00 0.00 27 1006.1
20260503184130 71 294 1.7 3.5 0.00 0.00 0.00 31 1006.2
20260503183626 70 353 1.7 5.2 0.00 0.00 0.00 31 1006.1
20260503183123 69 203 1.7 2.6 0.00 0.00 0.00 30 1006.2
20260503182622 68 105 3.5 7.0 0.00 0.00 0.00 31 1006.3
20260503182120 70 308 3.5 5.2 0.00 0.00 0.00 32 1006.3
20260503181616 70 107 2.6 3.5 0.00 0.00 0.00 34 1006.4
20260503181113 69 171 1.7 3.5 0.00 0.00 0.00 33 1006.5
20260503180610 69 323 0.9 4.3 0.00 0.00 0.00 34 1006.4
20260503180108 70 331 1.7 3.5 0.00 0.00 0.00 34 1006.4
20260503175604 69 26 1.7 4.3 0.00 0.00 0.00 33 1006.5
20260503175102 70 334 1.7 4.3 0.00 0.00 0.00 33 1006.6
20260503174559 71 35 0.0 3.5 0.00 0.00 0.00 33 1006.3
20260503174055 70 346 2.6 4.3 0.00 0.00 0.00 34 1006.4
20260503173550 69 7 0.0 3.5 0.00 0.00 0.00 37 1006.4
20260503173047 69 331 0.9 3.5 0.00 0.00 0.00 36 1006.4
20260503172544 70 316 1.7 1.7 0.00 0.00 0.00 38 1006.5
20260503172041 69 297 1.7 3.5 0.00 0.00 0.00 38 1006.6
20260503171538 69 306 1.7 3.5 0.00 0.00 0.00 37 1006.6
20260503171035 70 18 6.1 7.8 0.00 0.00 0.00 37 1006.6
20260503170531 69 352 2.6 4.3 0.00 0.00 0.00 36 1006.8
20260503150924 65 293 2.6 3.5 0.00 0.00 0.00 42 1006.3
20260503150420 65 269 0.9 4.3 0.00 0.00 0.00 41 1006.5
20260503131314 57 340 0.9 2.6 0.00 0.00 0.00 50 1005.5
20260503130811 58 46 1.7 3.5 0.00 0.00 0.00 50 1005.5
20260503130309 58 41 0.9 2.6 0.00 0.00 0.00 51 1005.3
20260503110702 51 49 0.0 1.7 0.00 0.00 0.00 55 1004.3
20260503110159 52 46 0.0 2.6 0.00 0.00 0.00 54 1004.3
20260503100126 55 28 1.7 6.1 0.00 0.00 0.00 47 1004.4